Other Surface Observations
Issued by NWS Charleston, SC

Home | Current Version | Previous Version | Text Only | Print | Product List | Glossary On
Versions: 1 2 3 4 5 6 7 8 9 10 11 12 13 14 15 16 17 18 19 20 21 22 23 24 25 26 27 28 29 30 31 32 33 34 35 36 37 38 39 40 41 42 43 44 45 46 47 48 49 50
000
SXUS52 KCHS 251027
OSOCHS

MARINE OBSERVATIONS
NATIONAL WEATHER SERVICE CHARLESTON SC
600 AM EDT MON MAY 25 2015

...DOWNTOWN CHARLESTON AND HARBOR...

CITY           SKY/WX    TMP DP  RH WIND       PRES   REMARKS
WATERFRONT PRK   N/A     73  64  73 E9        30.26S
FORT JOHNSON   NOT AVBL

...LAKE MOULTRIE...

CITY           SKY/WX    TMP DP  RH WIND       PRES   REMARKS
PINOPOLIS        N/A     66  61  82 VRB3      30.23R

...LAKE AND SUPPLEMENTAL COASTAL OBSERVATIONS...

STATION/POSITION TIME  TEMP    WIND        PRES    WAVE   SWELL
                       AIR SEA DIR/SP/G            HT/PER HT/PER/DIR
                 (UTC) (F)     (DEG/KT/KT) (MB)    (FT/S) (FT/S/D)
FORT PULASKI     1000   76 77  100/ 10/ 12 1024.5F
SAPELO ISLAND    1000   73     100/  4     1024.0R
UPR LAKE MARION  NOT AVBL
WINYAH BAY       0900   72     120/  7     1025.0
LAKE MURRAY      1000   65      60/  2/  6 1025.4S
ACE BASIN NERRS  NOT AVBL


...C-MAN AND BUOY OBSERVATIONS...

STATION/POSITION TIME  TEMP    WIND        PRES    WAVE   SWELL
                       AIR SEA DIR/SP/G            HT/PER HT/PER/DIR
                 (UTC) (F)     (DEG/KT/KT) (MB)    (FT/S) (FT/S/D)
BUOY 41004       0950   74 75  100/ 12/ 14 1024.9R   5/ 8   3/ 8
BUOY 41008       0950   74 75  160/  4/  6 1023.7R   5/ 8   5/ 90/ 8
FOLLY BEACH CMAN 1000   74      90/ 12/ 13 1025.4R
CAPERS NS BUOY   0908   74     120/ 12/ 16 1025.6R
FRIPP NS BUOY    0900   76     100/ 10/ 12 1023.7F
5E ST. MARYS GA  0921      78                N/A     5/ 8


STATION/POSITION TIME  TEMP    WIND        PRES    WAVE   SWELL
                       AIR SEA DIR/SP/G            HT/PER HT/PER/DIR
                 (UTC) (F)     (DEG/KT/KT) (MB)    (FT/S) (FT/S/D)
FRYING PAN BUOY  0950   74 74  130/ 10/ 12 1027.1R   4/ 7   3/130/ 7
BUOY 41025       0950   72 77  150/  6/  8 1027.7R   2/ 8   2/100/ 8
CAPE LOOKOUT NC  1000   71     120/  8/  9 1027.0R
BUOY 41002       0950   73 74  100/ 12/ 14 1026.4R   4/ 6   3/100/ 6
BUOY 41010       0920   78 79   80/ 10/ 12 1022.6R
ST AUGUSTINE FL  1000   77 77  140/ 10/ 11 1023.1R

$$



USA.gov is the U.S. government's official web portal to all federal, state and local government web resources and services.